TimeMST,TemperatureF,Dew PointF,Humidity,Sea Level PressureIn,VisibilityMPH,Wind Direction,Wind SpeedMPH,Gust SpeedMPH,PrecipitationIn,Events,Conditions,WindDirDegrees,DateUTC
1:50 AM,76,64,59,29.94,2,Calm,Calm,,,,,,2012-11-06 08:50:00
4:50 AM,69,61,68,29.94,2,Calm,Calm,,,,,,2012-11-06 11:50:00
6:10 AM,60.8,53.6,77,29.96,10.0,South,3.5,-,N/A,,Partly Cloudy,190,2012-11-06 13:10:00
6:40 AM,60.8,53.6,77,29.97,10.0,Calm,Calm,-,N/A,,Scattered Clouds,0,2012-11-06 13:40:00
7:46 AM,68.0,55.4,64,30.04,10.0,Calm,Calm,-,N/A,,Scattered Clouds,0,2012-11-06 14:46:00
7:50 AM,69,58,61,29.97,12,Calm,Calm,,,,Clear,,2012-11-06 14:50:00
8:40 AM,75.2,59.0,57,30.00,10.0,Calm,Calm,-,N/A,,Partly Cloudy,0,2012-11-06 15:40:00
9:41 AM,82.4,64.4,54,30.00,10.0,North,6.9,-,N/A,,Partly Cloudy,360,2012-11-06 16:41:00
10:44 AM,84.2,60.8,45,30.04,12.0,NNW,4.6,-,N/A,,Partly Cloudy,340,2012-11-06 17:44:00
10:50 AM,89,66,37,29.98,19,NW,6.7,,,,Clear,320,2012-11-06 17:50:00
11:40 AM,86.0,62.6,45,29.97,12.0,North,11.5,-,N/A,,Partly Cloudy,350,2012-11-06 18:40:00
12:44 PM,87.8,60.8,40,29.94,12.0,North,16.1,-,N/A,,Partly Cloudy,360,2012-11-06 19:44:00
1:45 PM,87.8,62.6,43,29.96,12.0,North,16.1,-,N/A,,Partly Cloudy,350,2012-11-06 20:45:00
1:50 PM,89,66,37,29.91,19,NW,11.2,,,,,320,2012-11-06 20:50:00
2:40 PM,86.0,66.2,51,29.90,12.0,NNW,13.8,-,N/A,,Partly Cloudy,340,2012-11-06 21:40:00
3:41 PM,86.0,62.6,45,29.91,12.0,North,13.8,-,N/A,,Scattered Clouds,360,2012-11-06 22:41:00
4:45 PM,86,68,45,29.89,19,South,6.7,,,,Clear,180,2012-11-06 23:45:00
4:50 PM,84.2,64.4,51,30.01,10.0,North,9.2,-,N/A,,Scattered Clouds,360,2012-11-06 23:50:00
5:52 PM,80.6,64.4,58,29.93,10.0,NNE,6.9,-,N/A,,Scattered Clouds,20,2012-11-07 00:52:00
6:45 PM,77.0,66.2,69,29.94,10.0,Calm,Calm,-,N/A,,Partly Cloudy,0,2012-11-07 01:45:00
7:45 PM,80,70,65,29.91,2,North,4.5,,,,,0,2012-11-07 02:45:00
7:45 PM,75.2,66.2,73,30.06,10.0,Calm,Calm,-,N/A,,Clear,0,2012-11-07 02:45:00
8:42 PM,77.0,64.4,65,29.96,10.0,Calm,Calm,-,N/A,,Clear,0,2012-11-07 03:42:00
9:48 PM,71.6,64.4,78,29.96,10.0,Calm,Calm,-,N/A,,Clear,0,2012-11-07 04:48:00
10:40 PM,69.8,64.4,83,30.08,10.0,Calm,Calm,-,N/A,,Clear,0,2012-11-07 05:40:00
10:50 PM,75,66,68,29.96,2,Calm,Calm,,,,,,2012-11-07 05:50:00